Hourly Data Report for July 21, 2006

TORONTO CITY
ONTARIO

43°40'00.000" N
79°24'00.000" W
112.50 m
6158355
71508
XTO

Download Data

Hourly Data (July 2006)
Hourly Data Report for July 21, 2006
TIME
LST
Temp Definition
°C
Dew Point Definition
°C
Rel Hum Definition
%
Precip. Amount Definition
mm

Wind Dir Definition
10's deg

Wind Spd Definition
km/h
Visibility Definition
km
Stn Press Definition
kPa
Hmdx Definition


Wind Chill Definition


Weather Definition


00:00 23.0 20.9 88   LegendMM LegendMM   99.96 31   LegendNANA
01:00 22.8 20.5 87   LegendMM LegendMM   99.92 31   LegendNANA
02:00 21.7 19.9 90   LegendMM LegendMM   99.90 29   LegendNANA
03:00 21.9 20.1 90   LegendMM LegendMM   99.88 30   LegendNANA
04:00 21.2 20.1 93   LegendMM LegendMM   99.89 29   LegendNANA
05:00 21.5 20.4 93   LegendMM LegendMM   99.91 29   LegendNANA
06:00 22.1 20.9 93   LegendMM LegendMM   99.97 30   LegendNANA
07:00 23.1 21.2 89   LegendMM LegendMM   99.98 32   LegendNANA
08:00 24.0 21.3 85   LegendMM LegendMM   99.99 33   LegendNANA
09:00 24.5 20.9 80   LegendMM LegendMM   99.97 33   LegendNANA
10:00 25.0 20.9 78   LegendMM LegendMM   99.96 33   LegendNANA
11:00 24.8 20.5 77   LegendMM LegendMM   100.00 33   LegendNANA
12:00 25.2 20.5 75   LegendMM LegendMM   99.98 33   LegendNANA
13:00 24.7 20.5 77   LegendMM LegendMM   99.99 33   LegendNANA
14:00 25.5 20.8 75   LegendMM LegendMM   99.94 34   LegendNANA
15:00 25.7 21.0 75   LegendMM LegendMM   99.88 34   LegendNANA
16:00 25.0 20.8 78   LegendMM LegendMM   99.86 33   LegendNANA
17:00 25.2 20.9 77   LegendMM LegendMM   99.84 34   LegendNANA
18:00 25.5 18.7 66   LegendMM LegendMM   99.80 32   LegendNANA
19:00 24.5 20.1 77   LegendMM LegendMM   99.81 32   LegendNANA
20:00 24.4 18.3 69   LegendMM LegendMM   99.83 31   LegendNANA
21:00 23.9 18.3 71   LegendMM LegendMM   99.85 30   LegendNANA
22:00 22.8 19.4 81   LegendMM LegendMM   99.78 30   LegendNANA
23:00 22.4 19.1 82   LegendMM LegendMM   99.79 29   LegendNANA

Notes on Data Quality.

Legend

  • E = Estimated
  • M = Missing
  • NA = Not Available*
  • [empty] = Indicates an unobserved value
Date modified: